SCP
0 0 0 0 0 0 0 0 0 0 0 0 0 0 0 0 0 0 0 0 0 0
0 0 0 0 0 0 0 0 0 0 0 0 0 0 0 0 0 0 0 0 0 0
0 0 0 0 0 0 0 0 0 0 0 0 0 0 0 0 0 0 0 0 0 0
0 0 0 0 0 0 0 0 0 0 0 0 0 0 0 0 0 0 0 0 0 0
0 0 0 0 0 0 0 0 0 0 0 0 0 0 0 0 0 0 0 0 0 0
0 0 0 0 0 0 0 0 0 0 0 0 0 0 0 0 0 0 0 0 0 0
0 0 0 0 0 0 0 0 0 0 0 0 0 0 0 0 0 0 0 0 0 0
0 0 0 0 0 0 0 0 0 0 0 0 0 0 0 0 0 0 0 0 0 0
0 0 0 0 0 0 0 0 0 0 0 0 0 0 0 0 0 0 0 0 0 0
0 0 0 0 0 0 0 0 0 0 0 0 0 0 0 0 0 0 0 0 0 0
0 0 0 0 0 0 0 0 0 0 0 0 0 0 0 0 0 0 0 0 0 0
0 0 0 0 0 0 0 0 0 0 0 0 0 0 0 0 0 0 0 0 0 0
0 0 0 0 0 0 0 0 0 0 0 0 0 0 0 0 0 0 0 0 0 0
0 0 -0 0 0 0 0 0 0 0 0 0 0 0 0 0 0 0 0 0 0 0
Wind_Speed_500mb
32 40 43 43 48 48 45 44 45 49 55 62 58 58 66 73 74 82 85 98 84 95
25 27 30 32 34 37 39 42 45 50 51 49 53 55 61 67 72 70 77 84 81 92
18 21 23 26 29 33 36 39 43 44 46 49 52 56 61 66 72 73 76 77 82 84
12 13 14 15 16 19 21 24 28 32 36 41 47 51 58 64 70 74 76 79 79 80
12 10 5 5 9 14 17 21 26 31 36 40 45 48 53 58 63 69 74 76 77 77
7 6 5 7 11 16 20 23 27 31 34 38 43 48 53 58 63 67 70 70 72 73
11 11 10 11 13 17 19 22 25 29 32 35 39 44 48 53 59 63 67 71 72 72
18 19 20 20 22 25 27 29 32 34 35 37 39 42 46 52 57 64 68 71 73 75
16 19 21 24 27 29 32 34 36 40 42 44 46 48 51 56 60 63 69 75 77 79
22 27 29 29 31 35 38 41 43 45 48 49 49 53 55 56 62 68 70 73 78 82
32 36 38 41 43 45 46 48 49 49 51 55 52 55 58 62 67 72 74 74 77 79
38 41 45 49 53 55 60 61 62 62 60 61 60 60 63 67 71 77 81 82 82 81
41 46 50 54 58 62 66 73 74 76 74 74 75 68 70 71 75 81 82 83 86 87
46 51 55 60 62 66 70 76 81 84 86 85 82 84 83 81 82 83 86 88 87 86
Wind_Direction_500mb
226 236 244 251 251 255 264 265 270 271 274 269 269 273 272 275 276 272 273 270 278 271
203 215 230 236 243 249 254 258 258 262 266 271 272 274 275 276 276 277 282 276 282 275
193 207 218 228 237 244 247 250 251 251 255 258 262 266 270 272 275 274 273 276 277 278
170 190 205 217 229 244 249 252 260 263 264 265 265 265 266 268 271 273 275 277 278 276
106 119 146 199 245 263 271 276 278 281 282 280 277 275 274 274 275 277 279 281 281 280
77 46 351 319 304 299 298 293 288 289 288 286 286 286 285 283 281 278 278 277 277 278
62 46 24 6 347 334 324 317 313 309 303 298 293 290 285 281 280 280 280 280 279 278
39 28 16 6 357 347 340 335 331 325 320 316 313 308 303 299 293 288 285 281 279 278
21 4 350 341 333 328 324 320 317 314 312 311 310 309 308 305 300 296 293 289 286 282
347 339 332 327 323 320 317 316 315 315 313 312 313 310 309 306 302 300 297 295 294 291
332 328 326 323 321 318 315 313 309 308 308 307 309 309 309 307 304 301 300 299 297 293
330 328 324 320 317 315 311 309 306 306 305 304 305 306 307 307 306 304 302 301 297 295
330 327 323 319 317 316 312 309 307 305 303 300 300 301 301 302 302 301 302 300 297 296
328 324 321 318 318 316 314 310 307 305 302 299 298 297 296 297 297 298 298 298 299 300
Wind_Speed_850mb
32 40 43 43 48 48 45 44 45 49 55 62 58 58 66 73 74 82 85 98 84 95
25 27 30 32 34 37 39 42 45 50 51 49 53 55 61 67 72 70 77 84 81 92
18 21 23 26 29 33 36 39 43 44 46 49 52 56 61 66 72 73 76 77 82 84
12 13 14 15 16 19 21 24 28 32 36 41 47 51 58 64 70 74 76 79 79 80
12 10 5 5 9 14 17 21 26 31 36 40 45 48 53 58 63 69 74 76 77 77
7 6 5 7 11 16 20 23 27 31 34 38 43 48 53 58 63 67 70 70 72 73
11 11 10 11 13 17 19 22 25 29 32 35 39 44 48 53 59 63 67 71 72 72
18 19 20 20 22 25 27 29 32 34 35 37 39 42 46 52 57 64 68 71 73 75
16 19 21 24 27 29 32 34 36 40 42 44 46 48 51 56 60 63 69 75 77 79
22 27 29 29 31 35 38 41 43 45 48 49 49 53 55 56 62 68 70 73 78 82
32 36 38 41 43 45 46 48 49 49 51 55 52 55 58 62 67 72 74 74 77 79
38 41 45 49 53 55 60 61 62 62 60 61 60 60 63 67 71 77 81 82 82 81
41 46 50 54 58 62 66 73 74 76 74 74 75 68 70 71 75 81 82 83 86 87
46 51 55 60 62 66 70 76 81 84 86 85 82 84 83 81 82 83 86 88 87 86
Wind_Direction_850mb
226 236 244 251 251 255 264 265 270 271 274 269 269 273 272 275 276 272 273 270 278 271
203 215 230 236 243 249 254 258 258 262 266 271 272 274 275 276 276 277 282 276 282 275
193 207 218 228 237 244 247 250 251 251 255 258 262 266 270 272 275 274 273 276 277 278
170 190 205 217 229 244 249 252 260 263 264 265 265 265 266 268 271 273 275 277 278 276
106 119 146 199 245 263 271 276 278 281 282 280 277 275 274 274 275 277 279 281 281 280
77 46 351 319 304 299 298 293 288 289 288 286 286 286 285 283 281 278 278 277 277 278
62 46 24 6 347 334 324 317 313 309 303 298 293 290 285 281 280 280 280 280 279 278
39 28 16 6 357 347 340 335 331 325 320 316 313 308 303 299 293 288 285 281 279 278
21 4 350 341 333 328 324 320 317 314 312 311 310 309 308 305 300 296 293 289 286 282
347 339 332 327 323 320 317 316 315 315 313 312 313 310 309 306 302 300 297 295 294 291
332 328 326 323 321 318 315 313 309 308 308 307 309 309 309 307 304 301 300 299 297 293
330 328 324 320 317 315 311 309 306 306 305 304 305 306 307 307 306 304 302 301 297 295
330 327 323 319 317 316 312 309 307 305 303 300 300 301 301 302 302 301 302 300 297 296
328 324 321 318 318 316 314 310 307 305 302 299 298 297 296 297 297 298 298 298 299 300